sat.trackr.live / text

‹ back to catalog

HULIANWANG DIGUI-137

NORAD 67435 · 2026-007A

PAYLOAD ACTIVE UNKNOWN

§ Identity

Operator
Country
PRC
Launch date
2026-01-13
Launch site
WSC
Launch vehicle
Mass (kg)
RCS (m²)

External: N2YO · Heavens-Above · Gunter

§ Orbital elements

Epoch: 2026-05-24T18:36:03.375648Z

Period
108.33 min
Inclination
50.0057°
Eccentricity
0.0000892
Mean motion
13.29325902 rev/d
Perigee alt
1,148.6 km
Apogee alt
1,150.0 km
Semi-major
7,527.4 km
B*
7.1090e-5
RAAN
169.8115°
Arg perigee
281.1737°
Mean anomaly
78.9035°
Rev number
1,767

§ Raw data

HULIANWANG DIGUI-1371 67435U 26007A   26144.77503907 -.00000091  00000+0  71090-4 0  99962 67435  50.0057 169.8115 0000892 281.1737  78.9035 13.29325902 17672

JSON: /api/v1/satellites/67435 · /tle

For live sub-satellite position, see the globe view (requires WebGL).

§ Visibility from observer

Set your observer location to see the next 7 days of passes ≥ 10°. The values pass through the URL so the page stays shareable.

No JS? Fill the form by hand. The geolocation button needs JavaScript.